Weather History for Stevens Point, WI

Change the Weather History Date:

Saturday, January 21, 2012

  Actual Average Record
Temperature  
Mean Temperature 2 °F -  
Max Temperature 17 °F 24 °F 44 °F (1964)
Min Temperature -14 °F 6 °F -27 °F (1984)
Degree Days  
Heating Degree Days 64    
Moisture  
Dew Point -7 °F    
Average Humidity 68    
Maximum Humidity 92    
Minimum Humidity 45    
Precipitation  
Precipitation 0.00 in - - ()
Sea Level Pressure  
Sea Level Pressure 30.17 in    
Wind  
Wind Speed 1 mph (SE)    
Max Wind Speed 9 mph    
Max Gust Speed -    
Visibility 10 miles    
Events      
Averages and records for this station are not official NWS values.
T = Trace of Precipitation, MM = Missing Value Source: NWS Daily Summary

Daily Weather History Graph

Daily Weather History Graph

Search for Another Location

Airport:

Trip Planner

Search our weather history database for the weather conditions in past years. The results will help you decide how hot, cold, wet, or windy it might be!

Date:

Astronomy

Jan. 21, 2012 Rise Set
Actual Time 7:27 AM CST 4:51 PM CST
Civil Twilight 6:55 AM CST 5:23 PM CST
Nautical Twilight 6:20 AM CST 5:59 PM CST
Astronomical Twilight 5:45 AM CST 6:33 PM CST
Moon 6:00 AM CST (1/21) 3:25 PM CST (1/21)
Length of Visible Light 10h 27m
Length of Day
9h 23m
Waning Crescent, 3% of the Moon is Illuminated
Jan 21
Waning Crescent
Jan 23
New
Jan 30
First Quarter
Feb 7
Full
Feb 14
Last Quarter

Hourly Weather History & Observations

Time (CST) Temp. Windchill Dew Point Humidity Pressure Visibility Wind Dir Wind Speed Gust Speed Precip Events Conditions
12:15 AM -0.4 °F - -2.2 °F 92% 30.18 in 10.0 mi Calm Calm - N/A   Clear
12:35 AM -0.4 °F - -4.0 °F 85% 30.18 in 10.0 mi Calm Calm - N/A   Clear
12:55 AM -2.2 °F - -5.8 °F 85% 30.18 in 10.0 mi Calm Calm - N/A   Clear
1:15 AM -4.0 °F - -7.6 °F 85% 30.19 in 10.0 mi Calm Calm - N/A   Clear
1:35 AM -5.8 °F - -9.4 °F 84% 30.19 in 10.0 mi Calm Calm - N/A   Clear
2:15 AM -7.6 °F - -11.2 °F 84% 30.18 in 10.0 mi Calm Calm - N/A   Clear
2:35 AM -7.6 °F - -13.0 °F 77% 30.18 in 10.0 mi Calm Calm - N/A   Clear
2:55 AM -9.4 °F - -13.0 °F 84% 30.18 in 10.0 mi Calm Calm - N/A   Clear
3:15 AM -9.4 °F - -14.8 °F 77% 30.18 in 10.0 mi Calm Calm - N/A   Clear
3:35 AM -9.4 °F - -14.8 °F 77% 30.17 in 10.0 mi Calm Calm - N/A   Clear
3:55 AM -11.2 °F - -16.6 °F 77% 30.17 in 10.0 mi Calm Calm - N/A   Clear
4:15 AM -9.4 °F - -14.8 °F 77% 30.18 in 10.0 mi Calm Calm - N/A   Clear
4:35 AM -11.2 °F - -16.6 °F 77% 30.17 in 10.0 mi Calm Calm - N/A   Clear
4:55 AM -11.2 °F - -16.6 °F 77% 30.17 in 10.0 mi Calm Calm - N/A   Clear
5:15 AM -13.0 °F - -18.4 °F 77% 30.16 in 10.0 mi Calm Calm - N/A   Clear
5:35 AM -13.0 °F - -16.6 °F 84% 30.17 in 10.0 mi Calm Calm - N/A   Clear
5:55 AM -13.0 °F - -18.4 °F 77% 30.17 in 10.0 mi Calm Calm - N/A   Clear
6:15 AM -14.8 °F - -18.4 °F 84% 30.18 in 10.0 mi Calm Calm - N/A   Clear
6:35 AM -14.8 °F - -18.4 °F 84% 30.19 in 10.0 mi Calm Calm - N/A   Clear
6:55 AM -14.8 °F - -18.4 °F 84% 30.18 in 10.0 mi Calm Calm - N/A   Clear
7:15 AM -14.8 °F - -18.4 °F 84% 30.19 in 10.0 mi Calm Calm - N/A   Clear
7:35 AM -14.8 °F - -20.2 °F 77% 30.19 in 10.0 mi Calm Calm - N/A   Clear
7:55 AM -13.0 °F - -18.4 °F 77% 30.20 in 10.0 mi Calm Calm - N/A   Clear
8:15 AM -13.0 °F - -18.4 °F 77% 30.20 in 10.0 mi Calm Calm - N/A   Clear
8:35 AM -11.2 °F - -16.6 °F 77% 30.20 in 10.0 mi Calm Calm - N/A   Clear
8:55 AM -9.4 °F - -14.8 °F 77% 30.20 in 10.0 mi Calm Calm - N/A   Clear
9:15 AM -5.8 °F - -9.4 °F 84% 30.21 in 10.0 mi Calm Calm - N/A   Clear
9:35 AM -2.2 °F - -5.8 °F 85% 30.21 in 10.0 mi Calm Calm - N/A   Clear
9:55 AM 1.4 °F - -2.2 °F 85% 30.20 in 10.0 mi Calm Calm - N/A   Clear
10:15 AM 5.0 °F - 1.4 °F 85% 30.20 in 10.0 mi Calm Calm - N/A   Clear
10:35 AM 8.6 °F - -0.4 °F 67% 30.21 in 10.0 mi Calm Calm - N/A   Clear
10:55 AM 10.4 °F 4.0 °F 1.4 °F 67% 30.20 in 10.0 mi East 3.5 mph - N/A   Clear
11:15 AM 12.2 °F 4.3 °F 1.4 °F 62% 30.20 in 10.0 mi ESE 4.6 mph - N/A   Clear
11:55 AM 12.2 °F 4.3 °F 1.4 °F 62% 30.20 in 10.0 mi SE 4.6 mph - N/A   Clear
12:15 PM 14.0 °F 5.1 °F 1.4 °F 57% 30.19 in 10.0 mi SSE 5.8 mph - N/A   Clear
12:35 PM 14.0 °F 8.2 °F 1.4 °F 57% 30.18 in 10.0 mi South 3.5 mph - N/A   Clear
12:55 PM 15.8 °F 6.1 °F 1.4 °F 53% 30.17 in 10.0 mi SE 6.9 mph - N/A   Clear
1:15 PM 15.8 °F 6.1 °F 3.2 °F 58% 30.16 in 10.0 mi South 6.9 mph - N/A   Clear
1:35 PM 15.8 °F 8.6 °F 3.2 °F 58% 30.16 in 10.0 mi SSE 4.6 mph - N/A   Clear
1:55 PM 15.8 °F 5.1 °F 1.4 °F 53% 30.16 in 10.0 mi SSE 8.1 mph - N/A   Clear
2:15 PM 17.6 °F 9.3 °F 1.4 °F 49% 30.16 in 10.0 mi South 5.8 mph - N/A   Clear
2:35 PM 17.6 °F 9.3 °F 1.4 °F 49% 30.16 in 10.0 mi SSE 5.8 mph - N/A   Clear
2:55 PM 17.6 °F 6.4 °F 1.4 °F 49% 30.15 in 10.0 mi SSE 9.2 mph - N/A   Clear
3:15 PM 17.6 °F 10.7 °F -0.4 °F 45% 30.16 in 10.0 mi South 4.6 mph - N/A   Clear
3:35 PM 17.6 °F 9.3 °F -0.4 °F 45% 30.15 in 10.0 mi SSE 5.8 mph - N/A   Clear
3:55 PM 15.8 °F 7.2 °F -0.4 °F 49% 30.14 in 10.0 mi SSE 5.8 mph - N/A   Clear
4:15 PM 15.8 °F 10.2 °F -0.4 °F 49% 30.14 in 10.0 mi SE 3.5 mph - N/A   Clear
4:35 PM 14.0 °F 8.2 °F -2.2 °F 49% 30.14 in 10.0 mi SE 3.5 mph - N/A   Clear
4:55 PM 14.0 °F 8.2 °F -2.2 °F 49% 30.15 in 10.0 mi ESE 3.5 mph - N/A   Clear
5:15 PM 14.0 °F 8.2 °F -2.2 °F 49% 30.13 in 10.0 mi SE 3.5 mph - N/A   Clear
5:35 PM 14.0 °F 8.2 °F -2.2 °F 49% 30.12 in 10.0 mi SE 3.5 mph - N/A   Scattered Clouds
5:55 PM 14.0 °F 8.2 °F -2.2 °F 49% 30.12 in 10.0 mi SE 3.5 mph - N/A   Scattered Clouds
6:15 PM 14.0 °F 5.1 °F -0.4 °F 53% 30.12 in 10.0 mi SE 5.8 mph - N/A   Scattered Clouds
6:35 PM 14.0 °F 6.5 °F -0.4 °F 53% 30.12 in 10.0 mi SE 4.6 mph - N/A   Clear
6:55 PM 14.0 °F 5.1 °F -0.4 °F 53% 30.11 in 10.0 mi SE 5.8 mph - N/A   Clear
7:35 PM 12.2 °F 4.3 °F -0.4 °F 57% 30.11 in 10.0 mi SE 4.6 mph - N/A   Mostly Cloudy
7:55 PM 12.2 °F 1.7 °F -0.4 °F 57% 30.09 in 10.0 mi SE 6.9 mph - N/A   Mostly Cloudy
8:15 PM 12.2 °F 2.9 °F -0.4 °F 57% 30.08 in 10.0 mi ESE 5.8 mph - N/A   Scattered Clouds
8:35 PM 12.2 °F 4.3 °F -0.4 °F 57% 30.08 in 10.0 mi ESE 4.6 mph - N/A   Clear
9:15 PM 12.2 °F 2.9 °F -0.4 °F 57% 30.06 in 10.0 mi ESE 5.8 mph - N/A   Scattered Clouds
9:35 PM 12.2 °F 2.9 °F -2.2 °F 53% 30.04 in 10.0 mi ESE 5.8 mph - N/A   Scattered Clouds
9:55 PM 12.2 °F 4.3 °F -0.4 °F 57% 30.04 in 10.0 mi ESE 4.6 mph - N/A   Mostly Cloudy
10:15 PM 12.2 °F 6.1 °F -0.4 °F 57% 30.04 in 10.0 mi SE 3.5 mph - N/A   Overcast
10:35 PM 12.2 °F 2.9 °F 1.4 °F 62% 30.03 in 10.0 mi SE 5.8 mph - N/A   Overcast
10:55 PM 14.0 °F 6.5 °F 5.0 °F 67% 30.02 in 10.0 mi SE 4.6 mph - N/A   Overcast
11:15 PM 15.8 °F 5.1 °F 6.8 °F 68% 30.01 in 10.0 mi SE 8.1 mph - N/A   Overcast
11:35 PM 15.8 °F 7.2 °F 8.6 °F 73% 30.00 in 10.0 mi SE 5.8 mph - N/A   Mostly Cloudy
11:55 PM 15.8 °F 6.1 °F 8.6 °F 73% 30.00 in 10.0 mi SE 6.9 mph - N/A   Scattered Clouds